• In Hungary
  • List of Countries
  • For 7 days
  • Water Temperature
  • Satellite Maps
  • Weather Map
  • News
  • Weather Widgets
  • user-avatar
    Login

    Hourly Weather Santiago del Estero

    Today, 21 November, Tuesday

    Time Temperature Precipitation Wind Pressure Humidity
    00:00 +26°C° 0 mm 4 mps 737 mmHg 41%
    01:00 +24°C° 0 mm 6 mps 738 mmHg 47%
    02:00 +23°C° 0 mm 8 mps 739 mmHg 53%
    03:00 +22°C° 0.1 mm 8 mps 740 mmHg 61%
    04:00 +20°C° 0.1 mm 8 mps 741 mmHg 69%
    05:00 +18°C° 0.1 mm 7 mps 742 mmHg 77%
    06:00 +20°C° 0 mm 7 mps 743 mmHg 74%
    07:00 +21°C° 0 mm 7 mps 744 mmHg 71%
    08:00 +21°C° 0 mm 6 mps 745 mmHg 67%
    09:00 +23°C° 0 mm 6 mps 745 mmHg 61%
    10:00 +26°C° 0 mm 6 mps 745 mmHg 55%
    11:00 +28°C° 0 mm 6 mps 745 mmHg 49%
    12:00 +29°C° 0 mm 5 mps 745 mmHg 44%
    13:00 +30°C° 0 mm 5 mps 744 mmHg 40%
    14:00 +32°C° 0 mm 5 mps 744 mmHg 36%
    15:00 +32°C° 0 mm 5 mps 743 mmHg 35%
    16:00 +32°C° 0 mm 4 mps 743 mmHg 33%
    17:00 +32°C° 0 mm 4 mps 743 mmHg 32%
    18:00 +29°C° 0 mm 3 mps 743 mmHg 36%
    19:00 +27°C° 0 mm 3 mps 743 mmHg 40%
    20:00 +26°C° 0 mm 2 mps 744 mmHg 44%
    21:00 +25°C° 0 mm 2 mps 744 mmHg 48%
    22:00 +24°C° 0 mm 2 mps 745 mmHg 51%
    23:00 +23°C° 0 mm 2 mps 745 mmHg 55%

    Tomorrow, 22 November, Wednesday

    Time Temperature Precipitation Wind Pressure Humidity
    00:00 +21°C° 0 mm 2 mps 745 mmHg 57%
    01:00 +21°C° 0 mm 2 mps 745 mmHg 60%
    02:00 +20°C° 0 mm 2 mps 744 mmHg 62%
    03:00 +19°C° 0 mm 2 mps 744 mmHg 64%
    04:00 +19°C° 0 mm 2 mps 744 mmHg 66%
    05:00 +18°C° 0 mm 2 mps 744 mmHg 68%
    06:00 +20°C° 0 mm 3 mps 745 mmHg 62%
    07:00 +22°C° 0 mm 4 mps 745 mmHg 56%
    08:00 +25°C° 0 mm 4 mps 745 mmHg 50%
    09:00 +27°C° 0 mm 4 mps 745 mmHg 45%
    10:00 +29°C° 0 mm 4 mps 744 mmHg 39%
    11:00 +32°C° 0 mm 4 mps 744 mmHg 34%
    12:00 +33°C° 0 mm 4 mps 743 mmHg 31%
    13:00 +34°C° 0 mm 4 mps 742 mmHg 27%
    14:00 +35°C° 0 mm 4 mps 741 mmHg 24%
    15:00 +35°C° 0 mm 4 mps 740 mmHg 23%
    16:00 +35°C° 0 mm 4 mps 740 mmHg 22%
    17:00 +35°C° 0 mm 4 mps 739 mmHg 22%
    18:00 +33°C° 0 mm 3 mps 739 mmHg 25%
    19:00 +30°C° 0 mm 3 mps 739 mmHg 28%
    20:00 +27°C° 0 mm 2 mps 739 mmHg 31%
    21:00 +27°C° 0 mm 3 mps 740 mmHg 31%
    22:00 +26°C° 0 mm 4 mps 740 mmHg 31%
    23:00 +26°C° 0 mm 4 mps 741 mmHg 31%

    Day after tomorrow, 23 November, Thursday

    Time Temperature Precipitation Wind Pressure Humidity
    00:00 +25°C° 0 mm 4 mps 740 mmHg 32%
    01:00 +23°C° 0 mm 5 mps 740 mmHg 32%
    02:00 +23°C° 0 mm 5 mps 739 mmHg 33%
    03:00 +22°C° 0 mm 5 mps 739 mmHg 34%
    04:00 +22°C° 0 mm 5 mps 739 mmHg 36%
    05:00 +21°C° 0 mm 5 mps 740 mmHg 37%
    06:00 +23°C° 0 mm 6 mps 740 mmHg 36%
    07:00 +26°C° 0 mm 7 mps 740 mmHg 35%
    08:00 +27°C° 0 mm 7 mps 740 mmHg 33%
    09:00 +30°C° 0 mm 7 mps 740 mmHg 30%
    10:00 +33°C° 0 mm 7 mps 740 mmHg 27%
    11:00 +35°C° 0 mm 7 mps 740 mmHg 24%
    12:00 +38°C° 0 mm 7 mps 739 mmHg 22%
    13:00 +39°C° 0 mm 7 mps 738 mmHg 20%
    14:00 +40°C° 0 mm 6 mps 737 mmHg 19%
    15:00 +40°C° 0 mm 6 mps 737 mmHg 18%
    16:00 +40°C° 0 mm 6 mps 736 mmHg 18%
    17:00 +40°C° 0 mm 6 mps 736 mmHg 18%
    18:00 +37°C° 0 mm 5 mps 736 mmHg 21%
    19:00 +34°C° 0 mm 4 mps 737 mmHg 24%
    20:00 +32°C° 0 mm 4 mps 737 mmHg 27%
    21:00 +30°C° 0 mm 4 mps 737 mmHg 28%
    22:00 +30°C° 0 mm 4 mps 738 mmHg 28%
    23:00 +29°C° 0 mm 4 mps 738 mmHg 29%

    24 November, Friday

    Time Temperature Precipitation Wind Pressure Humidity
    00:00 +28°C° 0 mm 4 mps 738 mmHg 28%
    01:00 +28°C° 0 mm 4 mps 738 mmHg 28%
    02:00 +27°C° 0 mm 4 mps 737 mmHg 27%
    03:00 +26°C° 0 mm 4 mps 738 mmHg 28%
    04:00 +26°C° 0 mm 4 mps 738 mmHg 28%
    05:00 +25°C° 0 mm 4 mps 738 mmHg 29%
    06:00 +27°C° 0 mm 5 mps 738 mmHg 28%
    07:00 +29°C° 0 mm 6 mps 739 mmHg 28%
    08:00 +32°C° 0 mm 7 mps 739 mmHg 27%
    09:00 +34°C° 0 mm 7 mps 739 mmHg 25%
    10:00 +38°C° 0 mm 7 mps 739 mmHg 23%
    11:00 +40°C° 0 mm 8 mps 738 mmHg 20%
    12:00 +41°C° 0 mm 8 mps 737 mmHg 19%
    13:00 +43°C° 0 mm 7 mps 736 mmHg 18%
    14:00 +44°C° 0 mm 7 mps 735 mmHg 17%
    15:00 +44°C° 0 mm 7 mps 734 mmHg 18%
    16:00 +44°C° 0 mm 7 mps 733 mmHg 18%
    17:00 +44°C° 0 mm 6 mps 733 mmHg 18%
    18:00 +41°C° 0 mm 5 mps 733 mmHg 22%
    19:00 +37°C° 0 mm 4 mps 734 mmHg 25%
    20:00 +35°C° 0 mm 3 mps 734 mmHg 29%
    21:00 +31°C° 0.7 mm 3 mps 735 mmHg 39%
    22:00 +29°C° 0.7 mm 4 mps 736 mmHg 48%
    23:00 +27°C° 0.7 mm 4 mps 737 mmHg 57%

    25 November, Saturday

    Time Temperature Precipitation Wind Pressure Humidity
    00:00 +26°C° 1.2 mm 5 mps 737 mmHg 62%
    01:00 +24°C° 1.2 mm 7 mps 738 mmHg 67%
    02:00 +22°C° 1.2 mm 8 mps 738 mmHg 71%
    03:00 +22°C° 0.3 mm 7 mps 739 mmHg 74%
    04:00 +21°C° 0.3 mm 7 mps 740 mmHg 77%
    05:00 +21°C° 0.3 mm 7 mps 741 mmHg 80%
    06:00 +22°C° 0.1 mm 6 mps 742 mmHg 78%
    07:00 +22°C° 0.1 mm 5 mps 742 mmHg 76%
    08:00 +24°C° 0.1 mm 3 mps 743 mmHg 73%
    09:00 +26°C° 0 mm 3 mps 743 mmHg 66%
    10:00 +28°C° 0 mm 3 mps 743 mmHg 58%
    11:00 +30°C° 0 mm 4 mps 743 mmHg 50%
    12:00 +33°C° 0 mm 4 mps 742 mmHg 44%
    13:00 +34°C° 0 mm 5 mps 741 mmHg 38%
    14:00 +36°C° 0 mm 5 mps 740 mmHg 33%
    15:00 +36°C° 0 mm 5 mps 740 mmHg 31%
    16:00 +36°C° 0 mm 4 mps 740 mmHg 30%
    17:00 +36°C° 0 mm 4 mps 739 mmHg 28%
    18:00 +34°C° 0 mm 3 mps 740 mmHg 32%
    19:00 +30°C° 0 mm 3 mps 740 mmHg 37%
    20:00 +28°C° 0 mm 2 mps 740 mmHg 41%
    21:00 +27°C° 0 mm 2 mps 740 mmHg 45%
    22:00 +26°C° 0 mm 2 mps 741 mmHg 48%
    23:00 +26°C° 0 mm 2 mps 741 mmHg 52%

    26 November, Sunday

    Time Temperature Precipitation Wind Pressure Humidity
    00:00 +25°C° 0 mm 1 mps 740 mmHg 56%
    01:00 +24°C° 0 mm 1 mps 740 mmHg 59%
    02:00 +24°C° 0 mm 1 mps 739 mmHg 62%
    03:00 +24°C° 0 mm 1 mps 739 mmHg 65%
    04:00 +23°C° 0 mm 1 mps 739 mmHg 67%
    05:00 +23°C° 0 mm 2 mps 739 mmHg 69%
    06:00 +25°C° 0 mm 2 mps 740 mmHg 64%
    07:00 +27°C° 0 mm 3 mps 740 mmHg 59%
    08:00 +29°C° 0 mm 3 mps 740 mmHg 54%
    09:00 +31°C° 0 mm 3 mps 740 mmHg 47%
    10:00 +34°C° 0 mm 3 mps 739 mmHg 40%
    11:00 +35°C° 0 mm 4 mps 739 mmHg 34%
    12:00 +36°C° 0 mm 4 mps 738 mmHg 31%
    13:00 +37°C° 0 mm 4 mps 737 mmHg 28%
    14:00 +38°C° 0 mm 4 mps 736 mmHg 25%
    15:00 +38°C° 0 mm 4 mps 735 mmHg 24%
    16:00 +38°C° 0 mm 4 mps 735 mmHg 24%
    17:00 +38°C° 0 mm 4 mps 734 mmHg 24%
    18:00 +36°C° 0 mm 3 mps 735 mmHg 27%
    19:00 +33°C° 0 mm 3 mps 735 mmHg 31%
    20:00 +30°C° 0 mm 3 mps 735 mmHg 34%
    21:00 +30°C° 0 mm 3 mps 736 mmHg 35%
    22:00 +29°C° 0 mm 3 mps 736 mmHg 36%
    23:00 +28°C° 0 mm 3 mps 736 mmHg 38%
    Show more